Hourly Data Report for November 10, 2020

L'ASSOMPTION
QUEBEC
Current Station Operator: ECCC - MSC

45°48'34.000" N
73°26'05.000" W
21.00 m
7014160
71524
WEW

Download Data

Hourly Data (November 2020)
Hourly Data Report for November 10, 2020
TIME
LST
Temp Definition
°C
Dew Point Definition
°C
Rel Hum Definition
%
Precip. Amount Definition
mm

Wind Dir Definition
10's deg

Wind Spd Definition
km/h
Visibility Definition
km
Stn Press Definition
kPa
Hmdx Definition


Wind Chill Definition


Weather Definition


00:00 10.9 7.0 77 0.0 18 5   101.71     LegendNANA
01:00 11.0 7.2 77 0.0 18 6   101.66     LegendNANA
02:00 9.5 6.6 82 0.0 19 5   101.62     LegendNANA
03:00 8.6 6.4 86 0.0 19 4   101.61     LegendNANA
04:00 7.3 5.1 86 0.0 20 5   101.57     LegendNANA
05:00 6.6 5.9 95 0.0 27 3   101.54     LegendNANA
06:00 5.8 5.1 95 0.0 20 5   101.52     LegendNANA
07:00 6.6 5.8 94 0.0 24 4   101.52     LegendNANA
08:00 10.8 7.6 80 0.0 18 7   101.51     LegendNANA
09:00 14.4 7.5 63 0.0 18 9   101.50     LegendNANA
10:00 16.6 8.4 58 0.0 20 12   101.45     LegendNANA
11:00 18.8 9.1 53 0.0 21 15   101.40     LegendNANA
12:00 19.9 9.6 52 0.0 20 18   101.32     LegendNANA
13:00 21.0 10.3 50 0.0 21 20   101.22     LegendNANA
14:00 22.1 10.8 49 0.0 20 19   101.15     LegendNANA
15:00 21.7 11.0 50 0.0 20 14   101.15     LegendNANA
16:00 21.4 11.1 52 0.0 19 9   101.12     LegendNANA
17:00 19.1 10.7 58 0.0 17 10   101.14     LegendNANA
18:00 18.5 11.0 62 0.0 18 10   101.17     LegendNANA
19:00 17.6 11.3 66 0.0 18 8   101.14     LegendNANA
20:00 16.9 11.5 70 0.0 18 7   101.13     LegendNANA
21:00 14.7 10.9 78 0.0 18 4   101.14     LegendNANA
22:00 15.3 11.1 76 0.0 19 5   101.11     LegendNANA
23:00 15.0 11.1 77 0.0 17 6   101.06     LegendNANA

Notes on Data Quality.

Legend

  • E = Estimated
  • M = Missing
  • NA = Not Available*
  • [empty] = Indicates an unobserved value
Date modified: